[[[{"header":{"parameterUnit":"kt","parameterCategory":2,"dx":1,"dy":1,"la1":30.253999710083008,"la2":30.299108505249023,"lo1":-89.0895004272461,"lo2":-89.04439544677734,"nx":28,"ny":28,"refTime":"2022-10-26T21:00:00:Z","depth":0,"parameterNumber":1,"parameterNumberName":"U-component_of_WINDS"},"data":[-2.5816,-2.5845,-2.5793,-2.5802,-2.5757,-2.5754,-2.5737,-2.5709,-2.5673,-2.5665,-2.5651,-2.5602,-2.5546,-2.5518,-2.5501,-2.5479,-2.5476,-2.5526,-2.5492,-2.5315,-2.5287,-2.526,-2.5249,-2.5526,-2.5526,-2.5683,-2.5684,-2.5685,-2.5698,-2.5654,-2.5642,-2.5595,-2.5586,-2.5507,-2.5464,-2.5461,-2.5461,-2.5417,-2.5399,-2.5387,-2.5371,-2.5295,-2.5272,-2.5285,-2.5246,-2.5283,-2.5281,-2.5274,-2.5082,-2.5072,-2.5315,-2.5315,-2.5315,-2.5315,-2.5315,-2.5315,-2.5469,-2.5487,-2.5427,-2.5413,-2.5375,-2.5345,-2.5353,-2.529,-2.5278,-2.5244,-2.5182,-2.5181,-2.5126,-2.5069,-2.5036,-2.5035,-2.4984,-2.5007,-2.5013,-2.502,-2.5037,-2.4823,-2.5027,-2.5026,-2.5026,-2.5025,-2.5024,0,-2.5284,-2.5238,-2.5221,-2.5191,-2.5177,-2.5148,-2.5111,-2.5115,-2.4997,-2.4992,-2.4981,-2.4965,-2.4934,-2.4917,-2.4881,-2.484,-2.4757,-2.4741,-2.4757,-2.4788,-2.4822,-2.4806,-2.4499,-2.4735,-2.4733,-2.4731,-2.4729,-2.4728,-2.5049,-2.5076,-2.4985,-2.4981,-2.4946,-2.4942,-2.4927,-2.482,-2.4811,-2.475,-2.4772,-2.4752,-2.4731,-2.4721,-2.4645,-2.4622,-2.4581,-2.4678,-2.4576,-2.4607,-2.4584,-2.4584,-2.4587,-2.4699,-2.4703,-2.4706,-2.4708,0,-2.4923,-2.4832,-2.4855,-2.4761,-2.4738,-2.4772,-2.4691,-2.4705,-2.4639,-2.465,-2.4646,-2.4544,-2.4533,-2.444,-2.4409,-2.4361,-2.442,-2.4379,-2.4439,-2.4426,-2.4505,-2.45,-2.4771,-2.4802,-2.4513,-2.4516,-2.4518,0,-2.4687,-2.4726,-2.4588,-2.4606,-2.4646,-2.4535,-2.4578,-2.4525,-2.4472,-2.4479,-2.4367,-2.4376,-2.4253,-2.4249,-2.4178,-2.4209,-2.4202,-2.4167,-2.4148,-2.4178,-2.4182,-2.417,-2.4158,-2.41,-2.4099,-2.4098,-2.4097,0,-2.4499,-2.4468,-2.4497,-2.4475,-2.4376,-2.4392,-2.4352,-2.429,-2.4277,-2.4244,-2.4234,-2.4204,-2.4188,-2.4167,-2.4076,-2.4011,-2.411,-2.4002,-2.4075,-2.4077,-2.4101,-2.4101,-2.4365,-2.4095,-2.4095,-2.4094,-2.4094,0,-2.4293,-2.4261,-2.4315,-2.4229,-2.4225,-2.4244,-2.4206,-2.4199,-2.4142,-2.4097,-2.407,-2.3983,-2.3999,-2.39,-2.3922,-2.3864,-2.3855,-2.3822,-2.3826,-2.3821,-2.3712,-2.3875,-2.4135,-2.4159,-2.3819,-2.3817,-2.3815,0,-2.4105,-2.4133,-2.4036,-2.4089,-2.4089,-2.3961,-2.3979,-2.3931,-2.3872,-2.3864,-2.3798,-2.3789,-2.3694,-2.3678,-2.3701,-2.3634,-2.3709,-2.362,-2.3613,-2.3614,-2.3634,-2.3872,-2.3934,-2.4089,-2.3784,-2.3787,-2.379,0,-2.3945,-2.3821,-2.3837,-2.3807,-2.3722,-2.372,-2.3742,-2.3707,-2.3707,-2.3663,-2.3679,-2.3662,-2.3591,-2.3564,-2.3489,-2.3518,-2.3655,-2.3436,-2.3433,-2.3481,-2.3759,-2.3819,-2.3846,-2.3598,-2.3602,-2.3605,-2.3765,0,-2.3659,-2.3659,-2.3697,-2.3632,-2.3615,-2.3641,-2.3536,-2.3532,-2.3461,-2.3396,-2.3416,-2.3349,-2.3313,-2.3316,-2.3246,-2.3342,-2.3311,-2.3233,-2.3128,-2.3285,-2.3335,-2.3356,-2.3062,-2.3058,-2.3055,-2.3053,0,0,-2.3501,-2.3497,-2.3387,-2.3401,-2.338,-2.3244,-2.3282,-2.3245,-2.3174,-2.3163,-2.3103,-2.3071,-2.3018,-2.3053,-2.3094,-2.3079,-2.3087,-2.3035,-2.3211,-2.3229,-2.3245,-2.3301,-2.3324,-2.3047,-2.3046,-2.3045,-2.3044,0,-2.3374,-2.3321,-2.3358,-2.3314,-2.3246,-2.3174,-2.3183,-2.3091,-2.305,-2.3067,-2.2954,-2.2953,-2.2928,-2.2888,-2.2865,-2.3028,-2.2943,-2.3025,-2.3149,-2.3183,-2.3205,-2.3224,-2.3284,-2.3307,-2.3036,-2.3037,-2.3037,0,-2.3199,-2.313,-2.3135,-2.3077,-2.303,-2.3032,-2.2896,-2.2902,-2.2902,-2.2751,-2.2769,-2.2717,-2.2654,-2.2699,-2.2715,-2.2661,-2.2819,-2.2749,-2.2766,-2.2765,-2.2793,-2.282,-2.2844,-2.2528,-2.2527,-2.2526,0,0,-2.3103,-2.31,-2.2991,-2.3041,-2.302,-2.2912,-2.2901,-2.2828,-2.2772,-2.275,-2.268,-2.2631,-2.2615,-2.2607,-2.2587,-2.2651,-2.2629,-2.2691,-2.2715,-2.2735,-2.2745,-2.2778,-2.2805,-2.2521,-2.2521,-2.252,0,0,-2.3057,-2.2931,-2.2867,-2.2912,-2.2864,-2.2758,-2.2794,-2.2714,-2.2683,-2.2668,-2.2544,-2.2525,-2.2564,-2.2517,-2.2463,-2.2548,-2.2445,-2.2456,-2.2577,-2.2605,-2.2629,-2.2639,-2.2313,0,0,0,0,0,-2.2871,-2.2946,-2.289,-2.2881,-2.2806,-2.279,-2.2779,-2.2678,-2.2608,-2.2639,-2.2568,-2.2476,-2.2463,-2.2411,-2.2405,-2.2467,-2.2456,-2.2467,-2.2478,-2.2648,-2.2679,-2.2705,0,0,0,0,0,0,-2.2866,-2.2856,-2.2888,-2.2787,-2.2769,-2.2786,-2.2646,-2.262,-2.2602,-2.2585,-2.2493,-2.2473,-2.2387,-2.2407,-2.2403,-2.2464,-2.2314,-2.246,-2.247,-2.2479,-2.2658,-2.2684,-2.2706,0,0,0,0,0,-2.2862,-2.2854,-2.2759,-2.2785,-2.277,-2.2652,-2.2642,-2.262,-2.2604,-2.2493,-2.247,-2.2528,-2.2391,-2.2381,-2.2404,-2.2469,-2.2316,-2.2315,-2.2467,-2.2474,-2.2481,-2.2671,0,0,0,0,0,0,-2.2859,-2.2833,-2.2753,-2.2745,-2.2748,-2.2649,-2.263,-2.262,-2.2511,-2.249,-2.2522,-2.2509,-2.2395,-2.2386,-2.2379,-2.2476,-2.2317,-2.2316,-2.2316,-2.2473,-2.2479,-2.2484,0,0,0,0,0,0,-2.2837,-2.2827,-2.2749,-2.2707,-2.2693,-2.2647,-2.263,-2.2634,-2.2511,-2.2545,-2.2531,-2.2517,-2.2406,-2.2391,-2.2385,-2.2395,-2.2319,-2.2318,-2.2317,-2.2316,-2.2477,-2.2482,0,0,0,0,0,0,-2.2831,-2.2823,-2.2709,-2.2698,-2.2685,-2.2582,-2.2649,-2.2577,-2.2476,-2.2552,-2.2464,-2.2458,-2.2414,-2.2405,-2.2389,-2.2403,-2.2397,-2.2319,-2.2318,-2.2317,-2.2317,0,0,0,0,0,0,0,-2.2826,-2.2907,-2.2804,-2.269,-2.2679,-2.2666,-2.2663,-2.2661,-2.2475,-2.247,-2.2465,-2.2461,-2.2325,-2.2323,-2.2322,-2.241,0,0,-2.2319,-2.2318,0,0,0,0,0,0,0,0,-2.2909,-2.2908,-2.2804,-2.2802,-2.28,-2.2665,-2.2664,-2.2662,-2.2474,-2.247,-2.2466,-2.2463,-2.2324,-2.2323,-2.2322,0,0,0,0,0,0,0,0,0,0,0,0,0,0,0,-2.2804,-2.2802,0,-2.2665,-2.2664,-2.2662,-2.2473,-2.247,-2.2467,-2.2464,-2.2324,-2.2323,-2.2322,0,0,0,0,0,0,0,0,0,0,0,0,0,0,0,0,0,0,0,0,0,0,0,0,0,0,0,0,0,0,0,0,0,0,0,0,0,0,0,0,0,0,0,0,0,0,0,0,0,0,0,0,0,0,0,0,0,0,0,0,0,0,0,0,0,0,0,0,0]}],[{"header":{"parameterUnit":"kt","parameterCategory":2,"dx":1,"dy":1,"la1":30.253999710083008,"la2":30.299108505249023,"lo1":-89.0895004272461,"lo2":-89.04439544677734,"nx":28,"ny":28,"refTime":"2022-10-26T21:00:00:Z","depth":0,"parameterNumber":2,"parameterNumberName":"V-component_of_WINDS"},"data":[0.4049,0.3978,0.3968,0.3881,0.3857,0.3795,0.3769,0.3734,0.3703,0.3627,0.3581,0.3561,0.3524,0.3464,0.3412,0.3404,0.3381,0.3366,0.3357,0.3442,0.3453,0.3463,0.3478,0.3362,0.3361,0.3271,0.327,0.3269,0.4115,0.409,0.4042,0.3986,0.3944,0.3954,0.391,0.3873,0.3817,0.3778,0.3732,0.3663,0.3606,0.3573,0.3515,0.348,0.3479,0.3465,0.3465,0.3459,0.355,0.3567,0.3467,0.3467,0.3467,0.3467,0.3467,0.3467,0.423,0.4188,0.4148,0.4095,0.4064,0.4027,0.3984,0.3961,0.3911,0.3852,0.3846,0.3781,0.3738,0.3662,0.3633,0.3581,0.3593,0.3573,0.3567,0.3561,0.3556,0.3687,0.3571,0.3571,0.3571,0.3571,0.3571,0,0.431,0.4304,0.4256,0.4205,0.4165,0.4123,0.4083,0.4056,0.4035,0.3995,0.3935,0.3898,0.3825,0.3765,0.3708,0.3681,0.3681,0.3681,0.3666,0.3666,0.3674,0.3666,0.3813,0.3683,0.3684,0.3685,0.3685,0.3685,0.4423,0.4376,0.4328,0.4296,0.4271,0.4219,0.4185,0.417,0.4134,0.4081,0.4043,0.3985,0.3936,0.384,0.381,0.3753,0.3752,0.3704,0.3743,0.3747,0.3748,0.3749,0.3744,0.3695,0.3694,0.3693,0.3692,0,0.4488,0.4469,0.4391,0.4347,0.4335,0.4285,0.4246,0.4203,0.4184,0.4121,0.4105,0.4074,0.4014,0.3991,0.3917,0.3906,0.3821,0.3823,0.3836,0.3834,0.3787,0.379,0.3641,0.362,0.3744,0.3743,0.3742,0,0.4575,0.4513,0.4487,0.4443,0.4373,0.436,0.4291,0.4267,0.423,0.418,0.4179,0.4132,0.411,0.4059,0.4043,0.397,0.3956,0.3942,0.3938,0.394,0.3941,0.3916,0.3921,0.3934,0.3935,0.3935,0.3936,0,0.4675,0.4588,0.4517,0.4494,0.4439,0.4405,0.4381,0.4338,0.4304,0.4257,0.4234,0.4179,0.4147,0.4104,0.4084,0.4111,0.3994,0.4027,0.3979,0.3979,0.3951,0.3952,0.383,0.3937,0.3937,0.3937,0.3938,0,0.474,0.4694,0.4594,0.4549,0.4526,0.4478,0.4424,0.4378,0.4333,0.432,0.4282,0.4277,0.4212,0.4247,0.4157,0.4198,0.4167,0.4148,0.4144,0.4133,0.4171,0.4101,0.399,0.3976,0.4129,0.413,0.4132,0,0.4859,0.4753,0.474,0.4644,0.4591,0.4594,0.4541,0.4501,0.448,0.4431,0.4406,0.4349,0.437,0.4349,0.4308,0.4279,0.4226,0.4286,0.421,0.4208,0.422,0.4118,0.4105,0.4018,0.4152,0.415,0.4148,0,0.4947,0.4882,0.4866,0.4838,0.4784,0.4739,0.4679,0.462,0.4588,0.4543,0.449,0.4411,0.4422,0.4386,0.4375,0.4334,0.4261,0.4351,0.4349,0.4333,0.4161,0.4149,0.4135,0.4263,0.4261,0.4259,0.4164,0,0.5047,0.4991,0.4947,0.4885,0.4848,0.4787,0.4762,0.4726,0.472,0.4698,0.462,0.4579,0.4516,0.4494,0.4487,0.44,0.4409,0.4422,0.445,0.4385,0.4353,0.434,0.45,0.4501,0.4501,0.4502,0,0,0.5163,0.5082,0.5069,0.5009,0.4976,0.4978,0.4914,0.4882,0.4815,0.4792,0.4809,0.4689,0.4653,0.456,0.4538,0.4514,0.4494,0.4517,0.4417,0.4407,0.4399,0.4365,0.4352,0.4503,0.4503,0.4503,0.4503,0,0.5193,0.5162,0.5101,0.5067,0.5017,0.4997,0.4983,0.4931,0.4914,0.4838,0.4837,0.4787,0.4691,0.4653,0.4621,0.453,0.4529,0.4513,0.4472,0.4424,0.4413,0.4404,0.4369,0.4357,0.4505,0.4505,0.4505,0,0.5274,0.5238,0.5206,0.5132,0.5098,0.5043,0.5069,0.501,0.4968,0.4968,0.4892,0.4865,0.4812,0.4728,0.4689,0.4702,0.4563,0.4602,0.4598,0.4592,0.4543,0.4531,0.4521,0.4662,0.4662,0.4663,0,0,0.5303,0.5251,0.5206,0.5137,0.5116,0.5084,0.5052,0.5042,0.4997,0.4978,0.4942,0.4896,0.484,0.4803,0.4749,0.4661,0.4647,0.4623,0.4615,0.4609,0.46,0.455,0.4538,0.4665,0.4666,0.4666,0,0,0.5316,0.5261,0.5264,0.5181,0.5139,0.5087,0.5045,0.5046,0.4994,0.4998,0.4976,0.4962,0.4883,0.4856,0.4893,0.4758,0.4787,0.4777,0.4778,0.4768,0.4761,0.4767,0.4909,0,0,0,0,0,0.5333,0.5269,0.5272,0.5254,0.5158,0.5087,0.5074,0.5055,0.5077,0.5044,0.5014,0.5017,0.4871,0.4904,0.4885,0.4842,0.4698,0.4692,0.4687,0.4667,0.4657,0.4649,0,0,0,0,0,0,0.5326,0.5305,0.5273,0.522,0.5198,0.5089,0.5121,0.5114,0.508,0.5082,0.5023,0.5015,0.4996,0.4912,0.4895,0.4855,0.4914,0.4695,0.4691,0.4686,0.4663,0.4655,0.4648,0,0,0,0,0,0.532,0.5303,0.5155,0.522,0.5202,0.5162,0.5123,0.5117,0.509,0.5044,0.5036,0.508,0.4996,0.498,0.4902,0.4863,0.4926,0.492,0.4692,0.4688,0.4685,0.4659,0,0,0,0,0,0,0.5316,0.5297,0.5151,0.5144,0.5243,0.5168,0.5155,0.512,0.5054,0.5046,0.51,0.5102,0.4994,0.4983,0.4971,0.4867,0.4935,0.4929,0.4925,0.4689,0.4686,0.4684,0,0,0,0,0,0,0.5306,0.5291,0.5147,0.5177,0.5174,0.5173,0.5162,0.5092,0.5053,0.5114,0.5114,0.5101,0.5011,0.4984,0.4975,0.4866,0.4942,0.4936,0.4932,0.4929,0.4687,0.4685,0,0,0,0,0,0,0.5299,0.5287,0.5179,0.5176,0.5174,0.5099,0.511,0.5012,0.5082,0.5117,0.5087,0.509,0.5012,0.5003,0.4978,0.4873,0.4868,0.4942,0.4938,0.4935,0.4933,0,0,0,0,0,0,0,0.5294,0.5383,0.519,0.5175,0.5173,0.5084,0.5082,0.508,0.5082,0.5084,0.5087,0.5089,0.4975,0.4969,0.4962,0.4878,0,0,0.4942,0.4939,0,0,0,0,0,0,0,0,0.5388,0.5385,0.5189,0.5188,0.5187,0.5084,0.5082,0.5081,0.5083,0.5084,0.5086,0.5088,0.4974,0.4968,0.4963,0,0,0,0,0,0,0,0,0,0,0,0,0,0,0,0.5189,0.5188,0,0.5084,0.5082,0.5081,0.5083,0.5084,0.5086,0.5087,0.4972,0.4968,0.4963,0,0,0,0,0,0,0,0,0,0,0,0,0,0,0,0,0,0,0,0,0,0,0,0,0,0,0,0,0,0,0,0,0,0,0,0,0,0,0,0,0,0,0,0,0,0,0,0,0,0,0,0,0,0,0,0,0,0,0,0,0,0,0,0,0,0,0,0,0]}]]]